Погода в Нетьинке

Россия / Брянская область     53°20′52″N   34°11′41″E
темп.,
°C
ветер,
м/с
пор.,
м/с
влажн.,
%
обл.,
%
осадки,
мм/ч
давл.,
гПа
погр.,
м
7 июля, чт
чт700:00+20ююв377522 0.0 1011114
03:00+18ююв228354 0.0 101129
06:00+18ююз268927 0.0 1011171
09:00+22з347924 0.1 1012511
12:00+25з556533 0.0 10131127
15:00+25з446174 0.0 10131009
18:00+22зсз45675 0.1 1015859
21:00+17ссз378378 0.1 1016207
8 июля, пт
пт800:00+15сз239298 0.0 101757
03:00+14ссз369687 0.0 1017131
06:00+15с249142 0.0 1018134
09:00+20с33705 0.0 1018713
12:00+23ссз225648 0.0 10171388
15:00+24зсз3356100 0.0 10171121
18:00+24ссз225691 0.0 1016884
21:00+17с358731 0.7 101668
9 июля, сб
сб900:00+15с379397 0.9 1016133
03:00+15с35945 2.3 101699
06:00+15ссв2593100 0.0 1016132
09:00+18юв2283100 0.6 1015298
12:00+20всв117796 0.4 1014335
15:00+20ю5678100 0.7 1013459
18:00+20з2279100 1.3 1011169
21:00+17в118995 1.3 101211
10 июля, вс
вс1000:00+15всв1190100 0.0 101111
03:00+15св1194100 0.9 101011
06:00+15сз119781 3.3 101031
09:00+19в2388100 3.4 1009347
12:00+24юв3461100 0.0 10081050
15:00+24вюв3467100 2.6 1007631
18:00+23св117594 4.4 100761
21:00+18вюв1294100 15.0 100757
11 июля, пн
пн1100:00+17св119780 3.8 100733
03:00+15в2297100 3.8 100725
06:00+16в1296100 0.6 100670
09:00+16ссв2599100 6.8 1004263
12:00+17юв71395100 6.1 1003815
15:00+21ю4683100 6.9 1003749
18:00+18з3492100 5.2 1002319
21:00+15з41096100 10.4 1005474